Погода в Новотроицком

Россия / Еврейская автономная область     48°15′13″N   131°57′39″E
темп.,
°C
ветер,
м/с
пор.,
м/с
влажн.,
%
обл.,
%
осадки,
мм/ч
давл.,
гПа
погр.,
м
8 мая, сб
сб801:00+6всв91485100 2.6 992648
04:00+6св71086100 2.7 992746
07:00+5св61092100 2.2 994803
10:00+4св51096100 2.9 995692
13:00+5св7884100 0.2 997800
16:00+6св6883100 0.2 997705
19:00+6св51088100 0.0 997527
22:00+7всв71485100 0.2 997631
9 мая, вс
вс901:00+6всв91781100 0.6 997624
04:00+5всв91783100 0.9 996662
07:00+5всв101887100 3.0 998645
10:00+5всв81589100 4.3 1000684
13:00+6св81290100 1.4 1002608
16:00+7св51087100 1.7 1003803
19:00+7с5986100 0.0 1005385
22:00+7с3588100 0.1 1007133
10 мая, пн
пн1001:00+7св1289100 0.3 100834
04:00+6зюз1192100 0.6 100913
07:00+6ююз1193100 0.3 101022
10:00+8юз228491 0.3 1011403
13:00+8зюз3386100 0.2 1011282
16:00+9з347999 0.2 1011543
19:00+11ссз4672100 0.1 1011694
22:00+8зсз118792 0.1 101311
11 мая, вт
вт1101:00+8ссз118796 0.0 101411
04:00+7всв2490100 0.0 101594
07:00+7вюв1291100 0.3 1017165
10:00+8юв2380100 0.4 1018470
13:00+10ююв336753 0.0 1018728
16:00+13ююв32566 0.0 10161183
19:00+13юв33565 0.0 1016987
22:00+9вюв337460 0.0 101725
12 мая, ср
ср1201:00+8юв3778100 0.0 1016126
04:00+8юв4978100 0.0 1014184
07:00+8вюв61281100 0.0 1013362
10:00+10ююв81369100 0.0 1012817
13:00+11ююв81071100 0.1 1009666
16:00+9ююв81390100 3.8 1008818
19:00+9ююв8149093 3.3 1006698
22:00+10ююв71390100 3.4 1006553